Location: Navalespino
(40.5894°N, 4.2660°W)
Time: 15:50:17
(UTC+00:00)

Atlas Centaur 2 - Pass Details

Date: 18 April 2024
Orbit: 458 x 1278 km, 30.4° (Epoch: 23 May)

Event Time Altitude Azimuth Distance (km) Brightness Sun altitude
Rises 21:14:27 0° 246° (WSW) 3,248 5.6 -23.3°
Reaches altitude 10° 21:17:36 10° 233° (SW) 2,157 4.4 -23.8°
Enters shadow 21:19:28 17° 215° (SW) 1,625 3.6 -24.0°
